Time,TemperatureF,DewpointF,PressureIn,WindDirection,WindDirectionDegrees,WindSpeedMPH,WindSpeedGustMPH,Humidity,HourlyPrecipIn,Conditions,Clouds,dailyrainin,SoftwareType,DateUTC
2013-05-12 00:00:00,67.9,66.7,29.99,West,260,0.0,0.0,96,0.00,,,0.00,Weather View 32 v70,2013-05-12 04:00:00,
2013-05-12 00:08:00,67.9,66.7,29.99,West,260,0.0,0.0,96,0.00,,,0.00,Weather View 32 v70,2013-05-12 04:08:00,
2013-05-12 00:10:00,68.2,67.0,30.00,West,260,0.0,0.0,96,0.00,,,0.00,Weather View 32 v70,2013-05-12 04:10:00,
2013-05-12 00:19:00,68.3,67.1,29.99,West,260,0.0,0.0,96,0.00,,,0.00,Weather View 32 v70,2013-05-12 04:19:00,
2013-05-12 00:29:00,68.6,67.4,30.00,West,260,0.0,0.0,96,0.00,,,0.00,Weather View 32 v70,2013-05-12 04:29:00,
2013-05-12 00:39:00,68.8,67.6,29.99,South,175,1.0,2.0,96,0.00,,,0.00,Weather View 32 v70,2013-05-12 04:39:00,
2013-05-12 00:49:00,68.9,67.7,29.99,South,175,1.0,5.0,96,0.00,,,0.00,Weather View 32 v70,2013-05-12 04:49:00,
2013-05-12 00:59:00,69.2,68.0,29.99,South,175,1.0,5.0,96,0.00,,,0.00,Weather View 32 v70,2013-05-12 04:59:00,
2013-05-12 01:08:00,69.2,68.0,29.99,South,175,1.0,5.0,96,0.00,,,0.00,Weather View 32 v70,2013-05-12 05:08:00,
2013-05-12 01:20:00,68.8,67.3,29.99,South,178,0.0,5.0,95,0.00,,,0.00,Weather View 32 v70,2013-05-12 05:20:00,
2013-05-12 01:30:00,68.7,67.2,29.99,South,173,0.0,5.0,95,0.00,,,0.00,Weather View 32 v70,2013-05-12 05:30:00,
2013-05-12 01:40:00,68.3,66.8,29.99,South,173,0.0,5.0,95,0.00,,,0.00,Weather View 32 v70,2013-05-12 05:40:00,
2013-05-12 01:50:00,68.1,66.6,29.99,South,173,0.0,5.0,95,0.00,,,0.00,Weather View 32 v70,2013-05-12 05:50:00,
2013-05-12 02:00:00,67.9,66.4,29.99,South,173,0.0,5.0,95,0.00,,,0.00,Weather View 32 v70,2013-05-12 06:00:00,
2013-05-12 02:09:00,67.9,66.4,29.99,South,173,0.0,5.0,95,0.00,,,0.00,Weather View 32 v70,2013-05-12 06:09:00,
2013-05-12 02:20:00,67.9,66.4,29.98,South,173,0.0,3.0,95,0.00,,,0.00,Weather View 32 v70,2013-05-12 06:20:00,
2013-05-12 02:30:00,67.9,66.4,29.98,South,173,0.0,1.0,95,0.00,,,0.00,Weather View 32 v70,2013-05-12 06:30:00,
2013-05-12 02:40:00,67.9,66.7,29.98,South,173,0.0,1.0,96,0.00,,,0.00,Weather View 32 v70,2013-05-12 06:40:00,
2013-05-12 02:50:00,68.0,66.8,29.97,South,174,0.0,2.0,96,0.00,,,0.00,Weather View 32 v70,2013-05-12 06:50:00,
2013-05-12 03:00:00,68.2,67.0,29.97,South,173,2.0,4.0,96,0.00,,,0.00,Weather View 32 v70,2013-05-12 07:00:00,
2013-05-12 03:10:00,67.7,66.5,29.98,South,182,0.0,4.0,96,0.00,,,0.00,Weather View 32 v70,2013-05-12 07:10:00,
2013-05-12 03:20:00,67.6,66.4,29.98,South,182,0.0,4.0,96,0.00,,,0.00,Weather View 32 v70,2013-05-12 07:20:00,
2013-05-12 03:30:00,67.6,66.4,29.97,SSE,165,1.0,4.0,96,0.00,,,0.00,Weather View 32 v70,2013-05-12 07:30:00,
2013-05-12 03:40:00,67.9,66.7,29.96,SSE,167,4.0,5.0,96,0.00,,,0.00,Weather View 32 v70,2013-05-12 07:40:00,
2013-05-12 03:50:00,68.3,67.1,29.95,SSE,157,3.0,8.0,96,0.00,,,0.00,Weather View 32 v70,2013-05-12 07:50:00,
2013-05-12 04:00:00,67.8,66.6,29.94,South,180,1.0,8.0,96,0.00,,,0.00,Weather View 32 v70,2013-05-12 08:00:00,
2013-05-12 04:10:00,67.9,66.7,29.94,SSW,197,0.0,8.0,96,0.00,,,0.00,Weather View 32 v70,2013-05-12 08:10:00,
2013-05-12 04:19:00,67.5,66.3,29.94,SSW,207,0.0,8.0,96,0.00,,,0.00,Weather View 32 v70,2013-05-12 08:19:00,
2013-05-12 04:29:00,67.6,66.4,29.94,SW,218,0.0,8.0,96,0.00,,,0.00,Weather View 32 v70,2013-05-12 08:29:00,
2013-05-12 04:39:00,67.4,66.2,29.94,SW,219,0.0,8.0,96,0.00,,,0.00,Weather View 32 v70,2013-05-12 08:39:00,
2013-05-12 04:49:00,67.5,66.3,29.95,SW,233,1.0,5.0,96,0.00,,,0.00,Weather View 32 v70,2013-05-12 08:49:00,
2013-05-12 04:59:00,67.3,66.1,29.95,WNW,286,0.0,5.0,96,0.00,,,0.00,Weather View 32 v70,2013-05-12 08:59:00,
2013-05-12 05:09:00,67.5,66.3,29.94,WNW,286,0.0,4.0,96,0.00,,,0.00,Weather View 32 v70,2013-05-12 09:09:00,
2013-05-12 05:19:00,67.3,66.1,29.94,WNW,286,0.0,4.0,96,0.00,,,0.00,Weather View 32 v70,2013-05-12 09:19:00,
2013-05-12 05:29:00,67.2,66.0,29.94,WNW,286,0.0,4.0,96,0.00,,,0.00,Weather View 32 v70,2013-05-12 09:29:00,
2013-05-12 05:40:00,67.1,66.2,29.94,WNW,286,0.0,4.0,97,0.00,,,0.00,Weather View 32 v70,2013-05-12 09:40:00,
2013-05-12 05:50:00,67.1,66.2,29.95,WNW,286,0.0,4.0,97,0.00,,,0.00,Weather View 32 v70,2013-05-12 09:50:00,
2013-05-12 06:00:00,66.8,65.6,29.95,WNW,286,0.0,1.0,96,0.00,,,0.00,Weather View 32 v70,2013-05-12 10:00:00,
2013-05-12 06:10:00,66.7,65.5,29.95,WNW,286,0.0,1.0,96,0.00,,,0.00,Weather View 32 v70,2013-05-12 10:10:00,
2013-05-12 06:11:00,66.7,65.5,29.95,WNW,286,0.0,1.0,96,0.00,,,0.00,Weather View 32 v70,2013-05-12 10:11:00,
2013-05-12 06:20:00,66.5,65.6,29.96,WNW,286,0.0,1.0,97,0.00,,,0.00,Weather View 32 v70,2013-05-12 10:20:00,
2013-05-12 06:30:00,66.2,65.0,29.97,WNW,286,0.0,1.0,96,0.00,,,0.00,Weather View 32 v70,2013-05-12 10:30:00,
2013-05-12 06:40:00,66.3,65.4,29.97,WNW,286,0.0,0.0,97,0.00,,,0.00,Weather View 32 v70,2013-05-12 10:40:00,
2013-05-12 06:50:00,66.9,66.0,29.97,WNW,286,0.0,0.0,97,0.00,,,0.00,Weather View 32 v70,2013-05-12 10:50:00,
2013-05-12 07:00:00,66.7,65.8,29.98,WNW,286,0.0,1.0,97,0.00,,,0.00,Weather View 32 v70,2013-05-12 11:00:00,
2013-05-12 07:10:00,66.6,65.7,29.98,WNW,286,0.0,1.0,97,0.00,,,0.00,Weather View 32 v70,2013-05-12 11:10:00,
2013-05-12 07:20:00,66.7,65.8,29.98,WNW,286,0.0,1.0,97,0.00,,,0.00,Weather View 32 v70,2013-05-12 11:20:00,
2013-05-12 07:30:00,66.9,66.0,29.98,WNW,286,0.0,1.0,97,0.00,,,0.00,Weather View 32 v70,2013-05-12 11:30:00,
2013-05-12 07:40:00,67.2,66.3,29.98,WNW,286,0.0,1.0,97,0.00,,,0.00,Weather View 32 v70,2013-05-12 11:40:00,
2013-05-12 07:50:00,67.7,66.8,29.98,WNW,286,0.0,2.0,97,0.00,,,0.00,Weather View 32 v70,2013-05-12 11:50:00,
2013-05-12 08:00:00,68.5,67.6,29.99,WNW,286,0.0,2.0,97,0.00,,,0.00,Weather View 32 v70,2013-05-12 12:00:00,
2013-05-12 08:10:00,69.3,68.1,29.99,WSW,257,0.0,3.0,96,0.00,,,0.00,Weather View 32 v70,2013-05-12 12:10:00,
2013-05-12 08:12:00,69.3,68.1,29.99,WSW,257,0.0,3.0,96,0.00,,,0.00,Weather View 32 v70,2013-05-12 12:12:00,
2013-05-12 08:19:00,70.1,68.6,29.99,WSW,251,1.0,4.0,95,0.00,,,0.00,Weather View 32 v70,2013-05-12 12:19:00,
2013-05-12 08:29:00,70.8,69.0,29.99,WSW,248,0.0,4.0,94,0.00,,,0.00,Weather View 32 v70,2013-05-12 12:29:00,
2013-05-12 08:39:00,71.5,69.4,29.99,WNW,282,4.0,4.0,93,0.00,,,0.00,Weather View 32 v70,2013-05-12 12:39:00,
2013-05-12 08:49:00,71.8,69.0,29.99,WNW,297,3.0,5.0,91,0.00,,,0.00,Weather View 32 v70,2013-05-12 12:49:00,
2013-05-12 08:59:00,72.1,69.0,30.00,West,275,0.0,8.0,90,0.00,,,0.00,Weather View 32 v70,2013-05-12 12:59:00,
2013-05-12 09:10:00,72.7,69.6,30.00,West,272,4.0,8.0,90,0.00,,,0.00,Weather View 32 v70,2013-05-12 13:10:00,
2013-05-12 09:13:00,72.7,69.6,30.00,West,272,4.0,8.0,90,0.00,,,0.00,Weather View 32 v70,2013-05-12 13:13:00,
2013-05-12 09:20:00,72.8,69.7,30.00,WNW,299,6.0,8.0,90,0.00,,,0.00,Weather View 32 v70,2013-05-12 13:20:00,
2013-05-12 09:30:00,73.2,69.4,30.00,WSW,244,2.0,9.0,88,0.00,,,0.00,Weather View 32 v70,2013-05-12 13:30:00,
2013-05-12 09:40:00,73.4,69.3,30.00,WNW,298,1.0,11.0,87,0.00,,,0.00,Weather View 32 v70,2013-05-12 13:40:00,
2013-05-12 09:50:00,73.9,69.4,30.00,WNW,295,2.0,11.0,86,0.00,,,0.00,Weather View 32 v70,2013-05-12 13:50:00,
2013-05-12 10:00:00,74.4,69.6,30.00,SW,227,0.0,11.0,85,0.00,,,0.00,Weather View 32 v70,2013-05-12 14:00:00,
2013-05-12 10:10:00,74.8,70.0,30.00,WNW,295,4.0,11.0,85,0.00,,,0.00,Weather View 32 v70,2013-05-12 14:10:00,
2013-05-12 10:20:00,75.0,69.5,30.00,West,261,1.0,11.0,83,0.00,,,0.00,Weather View 32 v70,2013-05-12 14:20:00,
2013-05-12 10:30:00,75.6,69.0,30.00,WSW,244,1.0,11.0,80,0.00,,,0.00,Weather View 32 v70,2013-05-12 14:30:00,
2013-05-12 10:40:00,75.9,69.3,30.00,WSW,242,1.0,11.0,80,0.00,,,0.00,Weather View 32 v70,2013-05-12 14:40:00,
2013-05-12 10:50:00,76.3,69.6,30.00,SSE,163,0.0,11.0,80,0.00,,,0.00,Weather View 32 v70,2013-05-12 14:50:00,
2013-05-12 11:00:00,76.6,68.8,30.00,SW,229,4.0,11.0,77,0.00,,,0.00,Weather View 32 v70,2013-05-12 15:00:00,
2013-05-12 11:10:00,77.4,70.0,29.99,WSW,245,1.0,11.0,78,0.00,,,0.00,Weather View 32 v70,2013-05-12 15:10:00,
2013-05-12 11:15:00,77.4,70.0,29.99,WSW,245,1.0,11.0,78,0.00,,,0.00,Weather View 32 v70,2013-05-12 15:15:00,
2013-05-12 11:20:00,78.1,69.1,29.99,WNW,285,6.0,9.0,74,0.00,,,0.00,Weather View 32 v70,2013-05-12 15:20:00,
2013-05-12 11:29:00,78.2,68.8,29.99,WSW,257,10.0,11.0,73,0.00,,,0.00,Weather View 32 v70,2013-05-12 15:29:00,
2013-05-12 11:40:00,79.0,69.6,29.99,WNW,296,6.0,11.0,73,0.00,,,0.00,Weather View 32 v70,2013-05-12 15:40:00,
2013-05-12 11:50:00,78.4,69.0,29.99,NW,304,5.0,12.0,73,0.00,,,0.00,Weather View 32 v70,2013-05-12 15:50:00,
2013-05-12 12:00:00,78.4,69.0,29.99,SSW,213,3.0,12.0,73,0.00,,,0.00,Weather View 32 v70,2013-05-12 16:00:00,
2013-05-12 12:10:00,78.3,69.3,29.99,West,276,2.0,12.0,74,0.00,,,0.00,Weather View 32 v70,2013-05-12 16:10:00,
2013-05-12 12:15:00,78.3,69.3,29.99,West,276,2.0,12.0,74,0.00,,,0.00,Weather View 32 v70,2013-05-12 16:15:00,
2013-05-12 12:29:00,79.7,69.0,29.99,NW,311,4.0,12.0,70,0.00,,,0.00,Weather View 32 v70,2013-05-12 16:29:00,
2013-05-12 12:40:00,79.8,69.5,29.99,WNW,293,5.0,12.0,71,0.00,,,0.00,Weather View 32 v70,2013-05-12 16:40:00,
2013-05-12 12:49:00,79.9,69.6,29.98,West,275,2.0,10.0,71,0.00,,,0.00,Weather View 32 v70,2013-05-12 16:49:00,
2013-05-12 13:00:00,80.1,68.5,29.98,West,269,3.0,12.0,68,0.00,,,0.00,Weather View 32 v70,2013-05-12 17:00:00,
2013-05-12 13:10:00,80.6,68.6,29.98,WSW,240,2.0,12.0,67,0.00,,,0.00,Weather View 32 v70,2013-05-12 17:10:00,
2013-05-12 13:16:00,80.6,68.6,29.98,WSW,240,2.0,12.0,67,0.00,,,0.00,Weather View 32 v70,2013-05-12 17:16:00,
2013-05-12 13:20:00,81.0,68.1,29.98,WNW,294,3.0,13.0,65,0.00,,,0.00,Weather View 32 v70,2013-05-12 17:20:00,
2013-05-12 13:30:00,81.4,68.5,29.97,WSW,238,0.0,17.0,65,0.00,,,0.00,Weather View 32 v70,2013-05-12 17:30:00,
2013-05-12 13:40:00,82.4,68.9,29.97,WSW,239,4.0,17.0,64,0.00,,,0.00,Weather View 32 v70,2013-05-12 17:40:00,
2013-05-12 13:50:00,80.4,68.4,29.97,West,277,2.0,17.0,67,0.00,,,0.00,Weather View 32 v70,2013-05-12 17:50:00,
2013-05-12 14:00:00,81.7,68.3,29.97,WNW,296,3.0,17.0,64,0.00,,,0.00,Weather View 32 v70,2013-05-12 18:00:00,
2013-05-12 14:09:00,82.4,67.5,29.97,SSE,168,4.0,17.0,61,0.00,,,0.00,Weather View 32 v70,2013-05-12 18:09:00,
2013-05-12 14:17:00,82.4,67.5,29.97,SSE,168,4.0,17.0,61,0.00,,,0.00,Weather View 32 v70,2013-05-12 18:17:00,
2013-05-12 14:20:00,81.8,68.4,29.97,WSW,237,0.0,17.0,64,0.00,,,0.00,Weather View 32 v70,2013-05-12 18:20:00,
2013-05-12 14:30:00,81.4,68.5,29.97,SW,233,1.0,11.0,65,0.00,,,0.00,Weather View 32 v70,2013-05-12 18:30:00,
2013-05-12 14:40:00,81.6,68.6,29.96,West,265,4.0,11.0,65,0.00,,,0.00,Weather View 32 v70,2013-05-12 18:40:00,
2013-05-12 14:50:00,82.1,68.2,29.96,WNW,301,4.0,11.0,63,0.00,,,0.00,Weather View 32 v70,2013-05-12 18:50:00,
2013-05-12 15:00:00,83.1,68.7,29.95,WSW,257,0.0,11.0,62,0.00,,,0.00,Weather View 32 v70,2013-05-12 19:00:00,
2013-05-12 15:10:00,84.0,68.6,29.95,SE,140,0.0,9.0,60,0.00,,,0.00,Weather View 32 v70,2013-05-12 19:10:00,
2013-05-12 15:17:00,84.0,68.6,29.95,SE,140,0.0,9.0,60,0.00,,,0.00,Weather View 32 v70,2013-05-12 19:17:00,
2013-05-12 15:20:00,83.3,67.4,29.95,West,279,7.0,9.0,59,0.00,,,0.00,Weather View 32 v70,2013-05-12 19:20:00,
2013-05-12 15:30:00,83.6,67.7,29.95,West,261,1.0,9.0,59,0.00,,,0.00,Weather View 32 v70,2013-05-12 19:30:00,
2013-05-12 15:40:00,84.2,67.3,29.94,SW,215,1.0,9.0,57,0.00,,,0.00,Weather View 32 v70,2013-05-12 19:40:00,
2013-05-12 15:50:00,84.0,67.1,29.94,West,267,6.0,10.0,57,0.00,,,0.00,Weather View 32 v70,2013-05-12 19:50:00,
2013-05-12 16:00:00,84.2,65.7,29.94,NNW,335,2.0,10.0,54,0.00,,,0.00,Weather View 32 v70,2013-05-12 20:00:00,
2013-05-12 16:10:00,84.1,66.6,29.94,SSE,157,2.0,10.0,56,0.00,,,0.00,Weather View 32 v70,2013-05-12 20:10:00,
2013-05-12 16:18:00,84.1,66.6,29.94,SSE,157,2.0,10.0,56,0.00,,,0.00,Weather View 32 v70,2013-05-12 20:18:00,
2013-05-12 16:20:00,84.5,66.5,29.93,WSW,254,0.0,10.0,55,0.00,,,0.00,Weather View 32 v70,2013-05-12 20:20:00,
2013-05-12 16:30:00,84.5,66.0,29.94,SSE,168,2.0,12.0,54,0.00,,,0.00,Weather View 32 v70,2013-05-12 20:30:00,
2013-05-12 16:40:00,84.0,66.6,29.94,WSW,244,1.0,12.0,56,0.00,,,0.00,Weather View 32 v70,2013-05-12 20:40:00,
2013-05-12 16:50:00,83.0,67.1,29.94,West,259,3.0,12.0,59,0.00,,,0.00,Weather View 32 v70,2013-05-12 20:50:00,
2013-05-12 17:00:00,84.1,66.6,29.94,SW,234,1.0,13.0,56,0.00,,,0.00,Weather View 32 v70,2013-05-12 21:00:00,
2013-05-12 17:10:00,82.9,67.5,29.93,West,273,4.0,13.0,60,0.00,,,0.00,Weather View 32 v70,2013-05-12 21:10:00,
2013-05-12 17:18:00,82.9,67.5,29.93,West,273,4.0,13.0,60,0.00,,,0.00,Weather View 32 v70,2013-05-12 21:18:00,
2013-05-12 17:19:00,84.2,67.3,29.93,WSW,248,1.0,13.0,57,0.00,,,0.00,Weather View 32 v70,2013-05-12 21:19:00,
2013-05-12 17:30:00,83.8,66.9,29.93,NW,315,3.0,13.0,57,0.00,,,0.00,Weather View 32 v70,2013-05-12 21:30:00,
2013-05-12 17:40:00,83.7,66.3,29.93,West,274,7.0,13.0,56,0.00,,,0.00,Weather View 32 v70,2013-05-12 21:40:00,
2013-05-12 17:50:00,82.6,65.3,29.93,WSW,245,4.0,13.0,56,0.00,,,0.00,Weather View 32 v70,2013-05-12 21:50:00,
2013-05-12 18:00:00,83.1,66.2,29.93,North,0,1.0,11.0,57,0.00,,,0.00,Weather View 32 v70,2013-05-12 22:00:00,
2013-05-12 18:10:00,83.2,65.8,29.93,West,265,3.0,11.0,56,0.00,,,0.00,Weather View 32 v70,2013-05-12 22:10:00,
2013-05-12 18:19:00,83.2,65.8,29.93,West,265,3.0,11.0,56,0.00,,,0.00,Weather View 32 v70,2013-05-12 22:19:00,
2013-05-12 18:20:00,82.8,66.5,29.94,West,261,0.0,11.0,58,0.00,,,0.00,Weather View 32 v70,2013-05-12 22:20:00,
2013-05-12 18:30:00,82.8,65.9,29.93,WNW,289,2.0,11.0,57,0.00,,,0.00,Weather View 32 v70,2013-05-12 22:30:00,
2013-05-12 18:40:00,82.6,65.8,29.94,WNW,289,0.0,11.0,57,0.00,,,0.00,Weather View 32 v70,2013-05-12 22:40:00,
2013-05-12 18:50:00,82.3,66.0,29.94,WSW,251,0.0,11.0,58,0.00,,,0.00,Weather View 32 v70,2013-05-12 22:50:00,
2013-05-12 19:00:00,82.0,65.7,29.94,WNW,298,1.0,11.0,58,0.00,,,0.00,Weather View 32 v70,2013-05-12 23:00:00,
2013-05-12 19:10:00,81.7,65.9,29.94,West,276,2.0,10.0,59,0.00,,,0.00,Weather View 32 v70,2013-05-12 23:10:00,
2013-05-12 19:19:00,81.7,65.9,29.94,West,276,2.0,10.0,59,0.00,,,0.00,Weather View 32 v70,2013-05-12 23:19:00,
2013-05-12 19:30:00,80.1,65.9,29.95,WNW,282,0.0,8.0,62,0.00,,,0.00,Weather View 32 v70,2013-05-12 23:30:00,
2013-05-12 19:40:00,79.4,65.7,29.95,WNW,282,0.0,8.0,63,0.00,,,0.00,Weather View 32 v70,2013-05-12 23:40:00,
2013-05-12 19:49:00,78.4,66.1,29.96,WNW,282,0.0,6.0,66,0.00,,,0.00,Weather View 32 v70,2013-05-12 23:49:00,
2013-05-12 20:00:00,77.6,66.2,29.96,WNW,282,0.0,6.0,68,0.00,,,0.00,Weather View 32 v70,2013-05-13 00:00:00,
2013-05-12 20:10:00,76.5,65.9,29.96,WNW,282,0.0,6.0,70,0.00,,,0.00,Weather View 32 v70,2013-05-13 00:10:00,
2013-05-12 20:20:00,75.6,66.7,29.97,WNW,282,0.0,2.0,74,0.00,,,0.00,Weather View 32 v70,2013-05-13 00:20:00,
2013-05-12 20:30:00,74.8,65.9,29.97,WNW,282,0.0,2.0,74,0.00,,,0.00,Weather View 32 v70,2013-05-13 00:30:00,
2013-05-12 20:40:00,74.1,66.0,29.97,WNW,282,0.0,0.0,76,0.00,,,0.00,Weather View 32 v70,2013-05-13 00:40:00,
2013-05-12 20:50:00,73.5,65.8,29.97,WNW,282,0.0,0.0,77,0.00,,,0.00,Weather View 32 v70,2013-05-13 00:50:00,
2013-05-12 21:00:00,73.1,65.1,29.97,WNW,282,0.0,0.0,76,0.00,,,0.00,Weather View 32 v70,2013-05-13 01:00:00,
2013-05-12 21:10:00,72.6,65.3,29.98,WNW,282,0.0,0.0,78,0.00,,,0.00,Weather View 32 v70,2013-05-13 01:10:00,
2013-05-12 21:20:00,71.9,65.0,29.98,WNW,282,0.0,0.0,79,0.00,,,0.00,Weather View 32 v70,2013-05-13 01:20:00,
2013-05-12 21:30:00,71.3,65.5,29.99,WNW,282,0.0,0.0,82,0.00,,,0.00,Weather View 32 v70,2013-05-13 01:30:00,
2013-05-12 21:40:00,71.1,64.9,29.99,WNW,282,0.0,0.0,81,0.00,,,0.00,Weather View 32 v70,2013-05-13 01:40:00,
2013-05-12 21:50:00,70.8,65.4,29.99,WNW,282,0.0,0.0,83,0.00,,,0.00,Weather View 32 v70,2013-05-13 01:50:00,
2013-05-12 22:00:00,70.5,64.7,30.00,WNW,282,0.0,0.0,82,0.00,,,0.00,Weather View 32 v70,2013-05-13 02:00:00,
2013-05-12 22:10:00,70.3,64.9,30.00,WNW,282,0.0,0.0,83,0.00,,,0.00,Weather View 32 v70,2013-05-13 02:10:00,
2013-05-12 22:20:00,70.0,64.6,30.00,WNW,282,0.0,0.0,83,0.00,,,0.00,Weather View 32 v70,2013-05-13 02:20:00,
2013-05-12 22:21:00,70.0,64.6,30.00,WNW,282,0.0,0.0,83,0.00,,,0.00,Weather View 32 v70,2013-05-13 02:21:00,
2013-05-12 22:30:00,69.6,64.5,30.00,WNW,282,0.0,0.0,84,0.00,,,0.00,Weather View 32 v70,2013-05-13 02:30:00,
2013-05-12 22:40:00,69.3,64.6,30.01,WNW,282,0.0,0.0,85,0.00,,,0.00,Weather View 32 v70,2013-05-13 02:40:00,
2013-05-12 22:50:00,69.3,64.9,30.02,WNW,282,0.0,0.0,86,0.00,,,0.00,Weather View 32 v70,2013-05-13 02:50:00,
2013-05-12 23:00:00,71.0,65.6,30.03,WNW,282,0.0,0.0,83,0.00,,,0.00,Weather View 32 v70,2013-05-13 03:00:00,
2013-05-12 23:10:00,72.0,66.2,30.03,WNW,282,0.0,0.0,82,0.00,,,0.00,Weather View 32 v70,2013-05-13 03:10:00,
2013-05-12 23:20:00,72.1,65.9,30.03,WNW,282,0.0,0.0,81,0.00,,,0.00,Weather View 32 v70,2013-05-13 03:20:00,
2013-05-12 23:22:00,72.1,65.9,30.03,WNW,282,0.0,0.0,81,0.00,,,0.00,Weather View 32 v70,2013-05-13 03:22:00,
2013-05-12 23:30:00,71.8,66.0,30.02,WNW,282,0.0,0.0,82,0.00,,,0.00,Weather View 32 v70,2013-05-13 03:30:00,
2013-05-12 23:40:00,71.2,66.1,30.02,WNW,282,0.0,0.0,84,0.00,,,0.00,Weather View 32 v70,2013-05-13 03:40:00,
2013-05-12 23:50:00,70.5,65.4,30.02,WNW,282,0.0,0.0,84,0.00,,,0.00,Weather View 32 v70,2013-05-13 03:50:00,